sat.trackr.live / text

‹ back to catalog

STARLINK-30360

NORAD 57776 · 2023-134F

PAYLOAD ACTIVE UNKNOWN

§ Identity

Operator
Country
US
Launch date
2023-09-04
Launch site
AFETR
Launch vehicle
Mass (kg)
RCS (m²)

Purposes: comms

External: N2YO · Heavens-Above · Gunter

§ Orbital elements

Epoch: 2026-05-24T09:47:38.081760Z

Period
94.27 min
Inclination
43.0037°
Eccentricity
0.0001337
Mean motion
15.27572814 rev/d
Perigee alt
482.2 km
Apogee alt
484.0 km
Semi-major
6,861.2 km
B*
3.6592e-5
RAAN
127.1557°
Arg perigee
286.4953°
Mean anomaly
73.5751°
Rev number
15,108

§ Raw data

STARLINK-303601 57776U 23134F   26144.40807965  .00000745  00000+0  36592-4 0  99952 57776  43.0037 127.1557 0001337 286.4953  73.5751 15.27572814151085

JSON: /api/v1/satellites/57776 · /tle

For live sub-satellite position, see the globe view (requires WebGL).

§ Visibility from observer

Set your observer location to see the next 7 days of passes ≥ 10°. The values pass through the URL so the page stays shareable.

No JS? Fill the form by hand. The geolocation button needs JavaScript.